Meteo Giornale » Osservazioni meteo Gran Bretagna » Leeming

ore: 19:50 - Osservazioni Meteo Leeming
Lat. 54° 18' N Lon. 1° 32' W Alt. 40 metri s.l.m.

molto_nuvoloso

18 °C

Molto Nuvoloso

Temp. 24 Ore

12 °C

20 °C

Sud-Ovest

16.7 Km/h

Dew point 12 °C

Umidità 67 %

Visibilità  10 Km

Il sole sorge alle ore 06:14

Il sole tramonta alle ore 19:58

Data e Ora Cielo e Fenomeni T °C DP °C Um. % Pres. hPa Vis. km Vento km/h
Oggi h: 19:50 molto_nuvoloso Molto Nuvoloso 18 12 67 1016 10 SO 16.7
Oggi h: 19:20 molto_nuvoloso Molto Nuvoloso 18 12 67 1016 10 O/SO 11.1
Oggi h: 18:50 molto_nuvoloso Molto Nuvoloso 18 12 67 1016 10 O/SO 20.3
Oggi h: 18:20 molto_nuvoloso Molto Nuvoloso 18 12 67 1016 10 O/SO 20.3
Oggi h: 17:50 molto_nuvoloso Molto Nuvoloso 18 11 63 1016 10 O/SO 22.2
Oggi h: 17:20 molto_nuvoloso Molto Nuvoloso 19 12 63 1016 10 O/SO 24
Oggi h: 16:50 molto_nuvoloso Molto Nuvoloso 19 12 63 1016 10 SO 24
Oggi h: 16:20 molto_nuvoloso Molto Nuvoloso 19 12 63 1016 10 SO 24
Oggi h: 15:50 molto_nuvoloso Molto Nuvoloso 19 12 63 1016 10 SO 24
Oggi h: 15:20 molto_nuvoloso Molto Nuvoloso 19 12 63 1016 10 SO 27.8
Oggi h: 14:50 molto_nuvoloso Molto Nuvoloso 19 13 68 1016 10 SO 24
Oggi h: 14:20 molto_nuvoloso Molto Nuvoloso 20 13 64 1016 10 SO 20.3
Oggi h: 13:50 molto_nuvoloso Molto Nuvoloso 19 12 63 1016 10 SO 25.9
Oggi h: 13:20 molto_nuvoloso Molto Nuvoloso 19 12 63 1016 10 SO 24
Oggi h: 12:50 molto_nuvoloso Molto Nuvoloso 20 12 59 1016 10 SO 27.8
Oggi h: 12:20 molto_nuvoloso Molto Nuvoloso 19 12 63 1016 10 SO 25.9
Oggi h: 11:50 nuvoloso Nuvoloso 19 12 63 1016 10 O/SO 29.6
Oggi h: 11:20 nuvoloso Nuvoloso 19 11 59 1016 10 SO 27.8
Oggi h: 10:50 nuvoloso Nuvoloso 18 12 67 1016 10 O/SO 24
Oggi h: 10:20 molto_nuvoloso Molto Nuvoloso 17 11 67 1016 10 SO 24
Oggi h: 09:50 molto_nuvoloso Molto Nuvoloso 18 11 63 1016 10 SO 27.8
Oggi h: 09:20 nuvoloso Nuvoloso 17 11 67 1016 10 O/SO 18.5
Oggi h: 08:50 poco_nuvoloso Poco Nuvoloso 17 11 67 1016 10 S 16.7
Oggi h: 08:20 nuvoloso Nuvoloso 16 12 77 1016 10 S/SE 14.8
Oggi h: 07:50 sereno Sereno 15 11 76 1016 10 S/SO 11.1
Oggi h: 07:20 molto_nuvoloso Molto Nuvoloso 14 11 82 1016 10 S/SO 9.3
Oggi h: 06:50 coperto Coperto 14 11 82 1016 10 S/SO 11.1
Oggi h: 06:20 coperto Coperto 14 11 82 1016 10 S 13
Oggi h: 05:50 coperto Coperto 14 11 82 1016 10 S 9.3
Oggi h: 05:20 coperto Coperto 14 10 76 1016 10 N 5.5
Oggi h: 04:50 coperto Coperto 14 10 76 1016 10 N 3.7
Oggi h: 04:20 coperto Coperto 13 10 81 1016 10 N 3.7
Oggi h: 03:50 coperto Coperto 13 10 81 1016 10 O/SO 7.4
Oggi h: 03:20 coperto Coperto 13 10 81 1016 10 O 13
Oggi h: 02:50 coperto Coperto 12 9 81 1016 10 N 1.8
Oggi h: 02:20 coperto Coperto 13 9 76 1016 10 O 13
Oggi h: 01:50 coperto Coperto 13 9 76 1016 10 O/NO 9.3
Oggi h: 01:20 coperto Coperto 13 9 76 1016 10 O 14.8
Oggi h: 00:50 coperto Coperto 14 9 71 1016 10 O 18.5
Oggi h: 00:20 coperto Coperto 13 8 71 1016 10 O 11.1
Ieri h: 23:50 nuvoloso Nuvoloso 14 9 71 1016 10 O/NO 16.7
Ieri h: 23:20 molto_nuvoloso Molto Nuvoloso 14 9 71 1016 10 O/NO 11.1
Ieri h: 22:50 coperto Coperto 14 9 71 1016 10 O 9.3
Ieri h: 22:20 molto_nuvoloso Molto Nuvoloso 15 9 67 1015 10 O/NO 9.3
Ieri h: 21:50 coperto Coperto 14 9 71 1015 10 O 11.1
Ieri h: 21:20 coperto Coperto 14 9 71 1015 10 O 13
Ieri h: 20:50 poco_nuvoloso Poco Nuvoloso 14 9 71 1014 10 O 13